QPF
0.09 0.09 0.08 0.09 0.09 0.11 0.13 0.14 0.13 0.16 0.18 0.18 0.18 0.18 0.21 0.22 0.19 0.20 0.21 0.21 0.19 0.17 0.22 0.22 0.15 0.11 0.09 0.06 0.03 0.02 0.01 0.01 0.00 0.00 0.00 0.01 0.01 0.01 0.00 0.00 0.01 0.01 0.01
0.14 0.12 0.10 0.09 0.09 0.09 0.10 0.12 0.11 0.12 0.15 0.15 0.15 0.19 0.19 0.24 0.29 0.35 0.35 0.26 0.24 0.23 0.22 0.26 0.27 0.22 0.16 0.10 0.06 0.04 0.02 0.01 0.01 0.00 0.00 0.00 0.01 0.01 0.00 0.00 0.00 0.01 0.01
0.17 0.17 0.12 0.07 0.07 0.08 0.09 0.09 0.10 0.11 0.12 0.12 0.11 0.12 0.11 0.13 0.19 0.24 0.29 0.28 0.26 0.26 0.30 0.33 0.32 0.24 0.16 0.12 0.09 0.05 0.03 0.02 0.01 0.01 0.01 0.00 0.00 0.00 0.00 0.00 0.00 0.01 0.01
0.11 0.18 0.14 0.07 0.07 0.09 0.08 0.08 0.09 0.08 0.08 0.08 0.07 0.07 0.07 0.07 0.08 0.11 0.13 0.16 0.22 0.21 0.25 0.29 0.30 0.23 0.17 0.13 0.09 0.08 0.05 0.03 0.02 0.01 0.01 0.01 0.01 0.01 0.01 0.01 0.01 0.01 0.01
0.08 0.08 0.07 0.05 0.06 0.05 0.06 0.06 0.06 0.06 0.04 0.04 0.04 0.04 0.04 0.04 0.05 0.06 0.06 0.06 0.11 0.18 0.22 0.23 0.26 0.24 0.18 0.15 0.13 0.13 0.11 0.08 0.05 0.03 0.02 0.01 0.01 0.01 0.01 0.01 0.02 0.01 0.01
0.09 0.09 0.05 0.03 0.02 0.03 0.03 0.04 0.04 0.03 0.03 0.03 0.03 0.02 0.01 0.02 0.03 0.03 0.03 0.05 0.05 0.08 0.13 0.13 0.13 0.11 0.11 0.13 0.14 0.15 0.15 0.13 0.10 0.06 0.04 0.03 0.03 0.02 0.01 0.01 0.01 0.01 0.01
0.11 0.07 0.02 0.01 0.01 0.01 0.01 0.01 0.01 0.02 0.02 0.02 0.02 0.01 0.01 0.01 0.02 0.01 0.02 0.03 0.03 0.05 0.08 0.09 0.10 0.08 0.07 0.09 0.11 0.14 0.17 0.17 0.14 0.10 0.07 0.06 0.04 0.02 0.01 0.02 0.01 0.01 0.02
0.06 0.03 0.01 0.00 0.00 0.00 0.00 0.00 0.01 0.00 0.00 0.01 0.01 0.01 0.01 0.01 0.01 0.01 0.03 0.04 0.05 0.06 0.06 0.07 0.08 0.08 0.10 0.12 0.11 0.10 0.16 0.19 0.18 0.16 0.12 0.08 0.05 0.03 0.02 0.02 0.01 0.01 0.01
0.06 0.02 0.01 0.01 0.01 0.01 0.00 0.00 0.00 0.00 0.00 0.00 0.01 0.01 0.01 0.01 0.00 0.00 0.01 0.02 0.03 0.04 0.04 0.07 0.08 0.07 0.08 0.10 0.10 0.12 0.13 0.15 0.17 0.20 0.18 0.13 0.08 0.06 0.04 0.03 0.03 0.02 0.01
0.05 0.03 0.02 0.02 0.02 0.01 0.01 0.00 0.00 0.00 0.00 0.00 0.00 0.01 0.01 0.01 0.01 0.00 0.00 0.01 0.02 0.02 0.03 0.04 0.06 0.08 0.11 0.15 0.17 0.17 0.15 0.15 0.15 0.17 0.18 0.16 0.12 0.09 0.07 0.05 0.06 0.05 0.03
0.05 0.04 0.05 0.05 0.03 0.03 0.03 0.02 0.01 0.00 0.00 0.00 0.00 0.00 0.01 0.01 0.01 0.01 0.00 0.01 0.01 0.01 0.01 0.03 0.05 0.07 0.14 0.19 0.16 0.15 0.18 0.16 0.14 0.12 0.13 0.14 0.12 0.09 0.09 0.10 0.12 0.13 0.10
0.06 0.06 0.07 0.07 0.06 0.04 0.04 0.03 0.03 0.01 0.01 0.00 0.00 0.00 0.00 0.01 0.01 0.01 0.01 0.01 0.01 0.01 0.01 0.02 0.03 0.05 0.07 0.09 0.11 0.12 0.13 0.14 0.15 0.14 0.12 0.12 0.11 0.11 0.10 0.10 0.12 0.16 0.18
0.06 0.07 0.08 0.09 0.11 0.09 0.08 0.07 0.04 0.02 0.01 0.01 0.01 0.00 0.00 0.00 0.01 0.01 0.01 0.01 0.01 0.01 0.01 0.02 0.02 0.04 0.05 0.06 0.09 0.13 0.14 0.11 0.12 0.13 0.14 0.14 0.12 0.11 0.10 0.10 0.12 0.15 0.19
0.07 0.07 0.10 0.11 0.11 0.08 0.07 0.06 0.05 0.04 0.02 0.01 0.01 0.00 0.00 0.00 0.00 0.01 0.01 0.01 0.01 0.01 0.02 0.01 0.02 0.03 0.04 0.04 0.06 0.08 0.09 0.11 0.11 0.11 0.11 0.14 0.14 0.13 0.11 0.11 0.10 0.10 0.12
0.04 0.06 0.08 0.10 0.09 0.07 0.05 0.05 0.06 0.05 0.03 0.01 0.00 0.00 0.00 0.00 0.00 0.00 0.01 0.01 0.02 0.02 0.02 0.02 0.01 0.02 0.05 0.06 0.08 0.09 0.07 0.09 0.12 0.13 0.12 0.11 0.11 0.11 0.10 0.09 0.10 0.10 0.10
0.02 0.03 0.04 0.05 0.05 0.06 0.05 0.04 0.03 0.03 0.02 0.01 0.01 0.01 0.00 0.00 0.00 0.00 0.00 0.01 0.01 0.02 0.02 0.01 0.01 0.02 0.04 0.05 0.07 0.07 0.06 0.07 0.10 0.12 0.10 0.10 0.09 0.09 0.09 0.08 0.07 0.08 0.09
0.01 0.02 0.02 0.03 0.04 0.06 0.07 0.05 0.03 0.03 0.02 0.02 0.01 0.01 0.00 0.00 0.00 0.00 0.00 0.01 0.01 0.02 0.02 0.01 0.02 0.03 0.04 0.05 0.06 0.08 0.07 0.07 0.08 0.10 0.09 0.08 0.09 0.08 0.07 0.07 0.06 0.05 0.06
0.00 0.01 0.01 0.02 0.03 0.04 0.06 0.06 0.05 0.04 0.03 0.02 0.02 0.02 0.01 0.01 0.00 0.01 0.01 0.01 0.01 0.02 0.02 0.02 0.02 0.03 0.04 0.05 0.07 0.08 0.08 0.08 0.08 0.10 0.10 0.10 0.09 0.08 0.07 0.06 0.05 0.04 0.04
0.00 0.00 0.01 0.01 0.02 0.03 0.04 0.04 0.06 0.06 0.05 0.03 0.02 0.02 0.01 0.01 0.01 0.01 0.01 0.02 0.03 0.04 0.03 0.03 0.03 0.04 0.05 0.06 0.07 0.08 0.10 0.09 0.08 0.08 0.09 0.10 0.10 0.10 0.08 0.06 0.05 0.04 0.04
0.01 0.01 0.01 0.01 0.01 0.02 0.03 0.03 0.04 0.05 0.05 0.05 0.04 0.03 0.02 0.01 0.01 0.01 0.01 0.02 0.04 0.04 0.04 0.04 0.04 0.04 0.04 0.05 0.07 0.07 0.08 0.08 0.08 0.06 0.07 0.07 0.07 0.07 0.07 0.06 0.05 0.04 0.04
0.01 0.01 0.01 0.01 0.01 0.02 0.02 0.03 0.04 0.04 0.05 0.05 0.05 0.03 0.02 0.02 0.01 0.01 0.02 0.03 0.03 0.03 0.04 0.04 0.04 0.04 0.04 0.05 0.06 0.05 0.07 0.06 0.06 0.07 0.07 0.05 0.04 0.03 0.04 0.04 0.04 0.03 0.03
0.01 0.01 0.01 0.00 0.01 0.01 0.02 0.02 0.04 0.04 0.05 0.05 0.05 0.04 0.03 0.02 0.01 0.02 0.02 0.02 0.02 0.02 0.03 0.04 0.04 0.04 0.04 0.04 0.04 0.04 0.05 0.06 0.07 0.06 0.05 0.06 0.04 0.04 0.03 0.03 0.04 0.03 0.03
0.01 0.01 0.01 0.01 0.01 0.01 0.02 0.02 0.03 0.04 0.05 0.05 0.05 0.04 0.03 0.02 0.02 0.02 0.02 0.04 0.03 0.03 0.04 0.04 0.05 0.04 0.05 0.03 0.03 0.04 0.05 0.05 0.05 0.05 0.04 0.06 0.05 0.04 0.03 0.03 0.04 0.04 0.03
0.01 0.01 0.01 0.01 0.01 0.01 0.02 0.03 0.04 0.05 0.06 0.08 0.07 0.06 0.04 0.03 0.02 0.02 0.02 0.02 0.03 0.03 0.03 0.03 0.03 0.04 0.05 0.05 0.06 0.05 0.05 0.06 0.06 0.06 0.04 0.05 0.05 0.04 0.02 0.02 0.02 0.02 0.02
0.01 0.01 0.02 0.01 0.01 0.02 0.02 0.02 0.03 0.05 0.08 0.12 0.13 0.09 0.05 0.04 0.04 0.03 0.02 0.02 0.02 0.03 0.04 0.04 0.04 0.06 0.07 0.07 0.07 0.06 0.06 0.07 0.09 0.10 0.06 0.04 0.04 0.03 0.02 0.01 0.01 0.01 0.01
0.01 0.01 0.02 0.02 0.02 0.02 0.03 0.03 0.04 0.05 0.08 0.11 0.16 0.17 0.09 0.04 0.04 0.04 0.03 0.02 0.02 0.03 0.03 0.05 0.07 0.08 0.08 0.09 0.09 0.08 0.07 0.07 0.08 0.10 0.08 0.06 0.04 0.03 0.02 0.01 0.01 0.00 0.00
MSLP
1011.09 1011.12 1011.12 1011.14 1011.20 1011.30 1011.44 1011.61 1011.76 1011.88 1011.95 1011.98 1011.96 1011.93 1011.91 1011.91 1011.93 1011.98 1012.05 1012.13 1012.21 1012.29 1012.38 1012.50 1012.67 1012.89 1013.17 1013.48 1013.82 1014.15 1014.46 1014.73 1014.99 1015.24 1015.51 1015.81 1016.17 1016.57 1017.00 1017.43 1017.83 1018.18 1018.48
1010.75 1010.77 1010.79 1010.83 1010.91 1011.03 1011.19 1011.36 1011.50 1011.61 1011.66 1011.66 1011.62 1011.56 1011.50 1011.46 1011.45 1011.47 1011.52 1011.58 1011.66 1011.76 1011.89 1012.05 1012.26 1012.51 1012.80 1013.11 1013.42 1013.71 1013.97 1014.20 1014.42 1014.65 1014.92 1015.24 1015.63 1016.06 1016.52 1016.98 1017.41 1017.79 1018.11
1010.42 1010.46 1010.50 1010.58 1010.70 1010.86 1011.04 1011.23 1011.38 1011.47 1011.51 1011.48 1011.41 1011.31 1011.21 1011.12 1011.06 1011.03 1011.03 1011.07 1011.13 1011.23 1011.37 1011.56 1011.79 1012.07 1012.37 1012.67 1012.95 1013.21 1013.43 1013.62 1013.81 1014.03 1014.30 1014.63 1015.03 1015.49 1015.98 1016.46 1016.91 1017.30 1017.65
1010.10 1010.17 1010.26 1010.38 1010.55 1010.76 1010.99 1011.19 1011.36 1011.45 1011.48 1011.43 1011.33 1011.20 1011.05 1010.91 1010.79 1010.70 1010.64 1010.62 1010.64 1010.72 1010.84 1011.03 1011.27 1011.55 1011.84 1012.14 1012.40 1012.63 1012.82 1012.99 1013.16 1013.37 1013.63 1013.97 1014.39 1014.86 1015.36 1015.85 1016.32 1016.73 1017.09
1009.83 1009.93 1010.06 1010.23 1010.46 1010.71 1010.97 1011.21 1011.40 1011.50 1011.53 1011.48 1011.37 1011.21 1011.03 1010.85 1010.67 1010.51 1010.38 1010.29 1010.25 1010.26 1010.35 1010.50 1010.71 1010.97 1011.24 1011.51 1011.76 1011.97 1012.14 1012.30 1012.46 1012.67 1012.94 1013.28 1013.70 1014.17 1014.68 1015.18 1015.64 1016.07 1016.45
1009.62 1009.74 1009.89 1010.10 1010.37 1010.66 1010.96 1011.22 1011.43 1011.56 1011.61 1011.58 1011.48 1011.32 1011.14 1010.93 1010.71 1010.49 1010.29 1010.12 1009.99 1009.93 1009.93 1010.01 1010.16 1010.36 1010.59 1010.82 1011.04 1011.23 1011.40 1011.55 1011.72 1011.93 1012.21 1012.56 1012.98 1013.45 1013.95 1014.44 1014.91 1015.35 1015.75
1009.49 1009.59 1009.75 1009.98 1010.25 1010.56 1010.87 1011.16 1011.39 1011.56 1011.65 1011.66 1011.61 1011.50 1011.33 1011.13 1010.90 1010.64 1010.38 1010.13 1009.91 1009.74 1009.64 1009.61 1009.66 1009.78 1009.93 1010.11 1010.29 1010.45 1010.61 1010.77 1010.95 1011.17 1011.46 1011.81 1012.23 1012.69 1013.18 1013.68 1014.15 1014.60 1015.02
1009.44 1009.51 1009.64 1009.83 1010.09 1010.38 1010.69 1010.99 1011.25 1011.46 1011.61 1011.69 1011.71 1011.67 1011.57 1011.42 1011.20 1010.93 1010.63 1010.31 1009.99 1009.71 1009.49 1009.33 1009.26 1009.26 1009.31 1009.41 1009.53 1009.66 1009.80 1009.96 1010.15 1010.38 1010.68 1011.04 1011.46 1011.92 1012.41 1012.90 1013.38 1013.84 1014.28
1009.47 1009.47 1009.53 1009.66 1009.87 1010.12 1010.40 1010.70 1010.98 1011.23 1011.45 1011.62 1011.74 1011.80 1011.79 1011.71 1011.55 1011.30 1010.98 1010.61 1010.21 1009.82 1009.47 1009.18 1008.96 1008.82 1008.76 1008.75 1008.80 1008.87 1008.99 1009.14 1009.33 1009.58 1009.89 1010.25 1010.67 1011.13 1011.62 1012.11 1012.60 1013.08 1013.56
1009.56 1009.47 1009.44 1009.49 1009.61 1009.80 1010.04 1010.30 1010.59 1010.88 1011.16 1011.42 1011.65 1011.82 1011.92 1011.93 1011.84 1011.63 1011.32 1010.93 1010.48 1010.00 1009.54 1009.12 1008.76 1008.48 1008.28 1008.16 1008.11 1008.13 1008.20 1008.32 1008.51 1008.76 1009.07 1009.44 1009.86 1010.32 1010.81 1011.32 1011.82 1012.33 1012.83
1009.69 1009.50 1009.38 1009.33 1009.35 1009.46 1009.63 1009.86 1010.13 1010.44 1010.76 1011.09 1011.41 1011.68 1011.88 1011.98 1011.97 1011.83 1011.56 1011.17 1010.70 1010.17 1009.62 1009.10 1008.62 1008.22 1007.89 1007.66 1007.51 1007.44 1007.45 1007.54 1007.70 1007.94 1008.24 1008.61 1009.04 1009.50 1010.00 1010.51 1011.03 1011.56 1012.08
1009.82 1009.56 1009.34 1009.20 1009.13 1009.15 1009.24 1009.41 1009.64 1009.94 1010.28 1010.64 1011.01 1011.34 1011.62 1011.80 1011.87 1011.80 1011.58 1011.24 1010.78 1010.24 1009.66 1009.07 1008.52 1008.01 1007.58 1007.24 1006.99 1006.84 1006.78 1006.81 1006.94 1007.15 1007.44 1007.80 1008.22 1008.68 1009.18 1009.70 1010.24 1010.78 1011.32
1009.94 1009.62 1009.34 1009.12 1008.97 1008.89 1008.91 1009.00 1009.18 1009.42 1009.73 1010.08 1010.45 1010.81 1011.12 1011.36 1011.49 1011.49 1011.34 1011.07 1010.67 1010.17 1009.60 1009.01 1008.41 1007.85 1007.35 1006.92 1006.59 1006.35 1006.21 1006.19 1006.26 1006.44 1006.71 1007.05 1007.45 1007.91 1008.41 1008.93 1009.47 1010.01 1010.56
1010.02 1009.68 1009.36 1009.08 1008.87 1008.72 1008.65 1008.66 1008.75 1008.92 1009.15 1009.44 1009.76 1010.09 1010.40 1010.66 1010.83 1010.89 1010.83 1010.65 1010.34 1009.93 1009.43 1008.88 1008.30 1007.73 1007.19 1006.71 1006.31 1006.00 1005.80 1005.71 1005.73 1005.87 1006.10 1006.41 1006.80 1007.24 1007.72 1008.23 1008.76 1009.30 1009.85
1010.02 1009.69 1009.37 1009.07 1008.81 1008.61 1008.46 1008.38 1008.37 1008.43 1008.56 1008.75 1008.98 1009.24 1009.51 1009.75 1009.95 1010.07 1010.10 1010.02 1009.83 1009.54 1009.15 1008.69 1008.17 1007.63 1007.09 1006.59 1006.16 1005.80 1005.55 1005.41 1005.39 1005.48 1005.67 1005.96 1006.32 1006.73 1007.19 1007.69 1008.20 1008.72 1009.24
1009.93 1009.64 1009.33 1009.04 1008.76 1008.52 1008.31 1008.14 1008.03 1007.97 1007.97 1008.03 1008.15 1008.32 1008.52 1008.73 1008.94 1009.11 1009.22 1009.26 1009.20 1009.04 1008.78 1008.43 1008.01 1007.53 1007.03 1006.55 1006.10 1005.73 1005.45 1005.28 1005.23 1005.30 1005.47 1005.73 1006.07 1006.46 1006.90 1007.36 1007.84 1008.33 1008.82
1009.72 1009.47 1009.21 1008.93 1008.66 1008.39 1008.14 1007.90 1007.68 1007.51 1007.39 1007.32 1007.33 1007.40 1007.53 1007.70 1007.91 1008.12 1008.31 1008.44 1008.50 1008.47 1008.34 1008.11 1007.78 1007.39 1006.95 1006.51 1006.09 1005.74 1005.47 1005.31 1005.26 1005.33 1005.50 1005.76 1006.09 1006.47 1006.88 1007.31 1007.76 1008.21 1008.67
1009.36 1009.16 1008.95 1008.71 1008.46 1008.18 1007.89 1007.59 1007.30 1007.04 1006.81 1006.65 1006.55 1006.54 1006.61 1006.76 1006.96 1007.20 1007.44 1007.65 1007.80 1007.87 1007.84 1007.70 1007.46 1007.14 1006.77 1006.39 1006.03 1005.73 1005.51 1005.40 1005.40 1005.52 1005.73 1006.02 1006.37 1006.75 1007.15 1007.56 1007.97 1008.39 1008.81
1008.84 1008.71 1008.54 1008.34 1008.11 1007.84 1007.53 1007.20 1006.86 1006.53 1006.24 1006.01 1005.85 1005.79 1005.82 1005.95 1006.15 1006.40 1006.67 1006.92 1007.12 1007.23 1007.25 1007.17 1006.99 1006.73 1006.42 1006.11 1005.83 1005.61 1005.49 1005.48 1005.58 1005.79 1006.08 1006.44 1006.84 1007.25 1007.66 1008.06 1008.46 1008.85 1009.23
1008.20 1008.11 1007.99 1007.82 1007.62 1007.36 1007.05 1006.71 1006.34 1005.99 1005.67 1005.41 1005.24 1005.16 1005.19 1005.31 1005.51 1005.76 1006.02 1006.26 1006.45 1006.55 1006.57 1006.48 1006.32 1006.09 1005.84 1005.60 1005.42 1005.32 1005.33 1005.46 1005.70 1006.05 1006.47 1006.94 1007.42 1007.89 1008.34 1008.76 1009.15 1009.51 1009.87
1007.45 1007.40 1007.31 1007.18 1006.99 1006.75 1006.45 1006.11 1005.75 1005.40 1005.10 1004.86 1004.70 1004.65 1004.69 1004.82 1005.01 1005.24 1005.46 1005.65 1005.77 1005.81 1005.76 1005.63 1005.44 1005.22 1005.01 1004.85 1004.77 1004.81 1004.98 1005.28 1005.71 1006.23 1006.81 1007.42 1008.02 1008.58 1009.09 1009.55 1009.94 1010.31 1010.64
1006.66 1006.63 1006.57 1006.46 1006.29 1006.05 1005.77 1005.44 1005.11 1004.79 1004.53 1004.33 1004.23 1004.22 1004.29 1004.43 1004.61 1004.80 1004.96 1005.05 1005.07 1005.01 1004.86 1004.65 1004.40 1004.16 1003.98 1003.89 1003.93 1004.12 1004.46 1004.95 1005.58 1006.29 1007.05 1007.82 1008.55 1009.22 1009.81 1010.31 1010.74 1011.11 1011.44
1005.88 1005.87 1005.82 1005.72 1005.55 1005.33 1005.05 1004.74 1004.44 1004.17 1003.96 1003.83 1003.79 1003.83 1003.94 1004.10 1004.26 1004.40 1004.47 1004.46 1004.36 1004.16 1003.89 1003.59 1003.28 1003.03 1002.87 1002.85 1003.00 1003.34 1003.85 1004.53 1005.34 1006.24 1007.17 1008.09 1008.95 1009.73 1010.40 1010.97 1011.43 1011.82 1012.16
1005.14 1005.15 1005.11 1005.01 1004.84 1004.61 1004.34 1004.06 1003.78 1003.56 1003.41 1003.34 1003.36 1003.46 1003.61 1003.77 1003.91 1003.99 1003.98 1003.87 1003.65 1003.34 1002.96 1002.58 1002.22 1001.96 1001.84 1001.89 1002.15 1002.61 1003.27 1004.10 1005.07 1006.11 1007.18 1008.22 1009.19 1010.06 1010.81 1011.43 1011.95 1012.37 1012.72
1004.49 1004.51 1004.47 1004.36 1004.19 1003.96 1003.69 1003.41 1003.17 1002.98 1002.88 1002.87 1002.94 1003.08 1003.26 1003.43 1003.55 1003.58 1003.51 1003.31 1003.01 1002.61 1002.18 1001.75 1001.38 1001.14 1001.06 1001.19 1001.53 1002.10 1002.86 1003.80 1004.86 1005.99 1007.13 1008.24 1009.28 1010.20 1011.01 1011.69 1012.25 1012.72 1013.10
1003.92 1003.94 1003.90 1003.79 1003.61 1003.37 1003.10 1002.83 1002.61 1002.45 1002.38 1002.41 1002.53 1002.70 1002.89 1003.07 1003.17 1003.18 1003.07 1002.84 1002.50 1002.08 1001.64 1001.22 1000.89 1000.69 1000.68 1000.88 1001.29 1001.92 1002.74 1003.71 1004.80 1005.94 1007.09 1008.21 1009.25 1010.20 1011.03 1011.75 1012.35 1012.86 1013.29
Thickness
5765 5763 5760 5760 5760 5759 5758 5756 5754 5753 5751 5750 5749 5748 5746 5745 5745 5745 5745 5746 5748 5748 5748 5747 5747 5746 5746 5745 5745 5744 5743 5742 5741 5740 5740 5738 5738 5737 5736 5734 5733 5732 5731
5763 5760 5758 5756 5755 5755 5754 5752 5751 5749 5748 5747 5746 5746 5745 5744 5743 5742 5742 5742 5744 5745 5745 5744 5744 5744 5743 5743 5743 5743 5742 5742 5741 5740 5740 5739 5738 5737 5736 5735 5734 5732 5731
5759 5757 5754 5752 5751 5750 5749 5748 5746 5745 5743 5743 5742 5743 5742 5741 5741 5740 5740 5740 5741 5742 5742 5741 5742 5742 5742 5741 5741 5741 5741 5741 5741 5740 5739 5739 5738 5737 5736 5736 5734 5733 5732
5755 5752 5750 5748 5747 5745 5745 5743 5742 5740 5739 5738 5738 5739 5740 5739 5739 5739 5739 5738 5738 5739 5739 5739 5740 5740 5741 5739 5739 5739 5739 5740 5740 5739 5739 5738 5738 5737 5736 5736 5735 5734 5732
5749 5746 5743 5743 5742 5741 5739 5739 5737 5736 5734 5734 5735 5736 5737 5737 5738 5738 5738 5738 5737 5737 5737 5737 5738 5738 5738 5737 5737 5737 5738 5738 5738 5738 5738 5737 5737 5736 5736 5736 5735 5734 5733
5744 5741 5738 5737 5736 5735 5734 5733 5732 5732 5731 5731 5732 5733 5734 5736 5736 5737 5737 5737 5736 5736 5735 5735 5735 5735 5735 5735 5735 5735 5735 5736 5736 5737 5737 5736 5736 5736 5735 5735 5735 5734 5733
5738 5736 5734 5732 5732 5730 5730 5729 5728 5727 5727 5728 5726 5726 5730 5734 5735 5736 5737 5736 5735 5735 5734 5733 5732 5732 5732 5733 5733 5734 5735 5735 5735 5735 5735 5735 5735 5735 5735 5735 5735 5734 5733
5733 5732 5729 5727 5727 5726 5725 5725 5724 5721 5721 5723 5720 5717 5715 5720 5727 5733 5734 5733 5733 5733 5732 5732 5731 5731 5731 5731 5732 5732 5733 5733 5733 5734 5734 5734 5734 5734 5734 5734 5734 5734 5733
5729 5727 5725 5724 5723 5722 5721 5720 5720 5717 5715 5716 5717 5713 5708 5706 5712 5722 5727 5729 5728 5728 5728 5729 5730 5730 5731 5731 5731 5731 5732 5732 5732 5732 5732 5732 5733 5733 5733 5733 5733 5733 5732
5722 5721 5720 5719 5719 5718 5716 5716 5717 5715 5712 5709 5711 5712 5711 5710 5706 5708 5715 5720 5723 5723 5724 5726 5727 5728 5729 5729 5730 5731 5731 5731 5731 5731 5731 5731 5731 5731 5732 5732 5732 5732 5731
5714 5714 5713 5712 5712 5712 5712 5711 5711 5710 5709 5707 5706 5706 5706 5706 5706 5703 5703 5708 5713 5717 5719 5721 5722 5724 5726 5727 5728 5729 5730 5730 5730 5730 5730 5730 5730 5730 5730 5731 5731 5731 5730
5703 5704 5705 5705 5705 5705 5705 5705 5705 5705 5704 5703 5703 5702 5701 5700 5700 5700 5700 5701 5703 5709 5714 5717 5718 5720 5723 5724 5725 5726 5727 5728 5728 5728 5727 5727 5727 5727 5728 5729 5729 5730 5729
5690 5692 5695 5696 5697 5698 5699 5699 5699 5699 5699 5699 5698 5699 5699 5699 5699 5697 5696 5697 5698 5703 5707 5711 5714 5716 5718 5719 5721 5722 5723 5724 5724 5724 5724 5724 5724 5724 5725 5726 5727 5728 5728
5679 5681 5683 5686 5688 5689 5690 5690 5691 5692 5693 5693 5694 5695 5695 5696 5696 5695 5694 5692 5693 5695 5698 5702 5707 5710 5712 5713 5715 5716 5717 5719 5719 5719 5720 5720 5720 5721 5722 5723 5724 5725 5725
5668 5670 5671 5673 5676 5678 5679 5680 5682 5684 5686 5687 5688 5689 5690 5692 5693 5693 5692 5690 5688 5688 5691 5696 5698 5703 5705 5706 5708 5710 5711 5713 5714 5714 5715 5715 5716 5717 5718 5719 5719 5720 5720
5653 5655 5657 5659 5662 5665 5667 5669 5671 5675 5677 5679 5681 5683 5684 5686 5687 5688 5688 5687 5687 5685 5686 5691 5692 5695 5696 5699 5701 5702 5704 5706 5707 5707 5708 5709 5710 5711 5712 5713 5714 5714 5715
5636 5638 5641 5644 5647 5650 5654 5656 5660 5664 5667 5670 5673 5676 5678 5680 5681 5682 5683 5683 5683 5682 5683 5686 5687 5689 5689 5690 5692 5694 5696 5697 5698 5699 5700 5701 5703 5703 5703 5704 5706 5706 5707
5621 5623 5625 5628 5632 5636 5639 5643 5647 5652 5656 5660 5664 5667 5671 5673 5675 5676 5677 5678 5678 5679 5678 5679 5681 5681 5682 5683 5684 5685 5687 5688 5689 5689 5691 5692 5693 5693 5693 5694 5696 5697 5698
5603 5606 5608 5611 5615 5619 5624 5629 5634 5639 5645 5650 5655 5659 5663 5665 5667 5669 5671 5672 5673 5675 5675 5675 5675 5676 5676 5676 5676 5677 5677 5677 5678 5678 5679 5680 5681 5682 5683 5684 5685 5686 5686
5586 5588 5591 5595 5599 5603 5608 5614 5619 5625 5632 5638 5644 5650 5654 5658 5661 5662 5665 5667 5668 5668 5668 5669 5670 5669 5669 5670 5669 5668 5667 5667 5667 5667 5668 5668 5669 5670 5672 5673 5674 5675 5675
5571 5573 5575 5577 5581 5586 5592 5598 5603 5610 5617 5624 5632 5638 5645 5650 5655 5657 5659 5661 5662 5662 5662 5663 5664 5664 5664 5662 5662 5661 5659 5657 5656 5656 5657 5656 5658 5658 5659 5660 5662 5663 5663
5557 5557 5559 5561 5565 5570 5576 5581 5587 5593 5601 5609 5617 5626 5633 5640 5646 5650 5653 5656 5657 5658 5659 5659 5659 5660 5659 5658 5657 5655 5653 5651 5647 5647 5648 5645 5647 5647 5647 5649 5650 5651 5652
5547 5546 5548 5549 5552 5555 5560 5566 5572 5578 5585 5594 5603 5612 5621 5629 5635 5639 5644 5649 5652 5654 5656 5657 5657 5657 5656 5656 5653 5650 5648 5646 5643 5641 5640 5636 5636 5636 5637 5637 5639 5640 5641
5540 5540 5541 5542 5544 5547 5550 5554 5559 5565 5571 5580 5590 5599 5608 5616 5623 5628 5633 5638 5643 5647 5650 5652 5653 5654 5654 5652 5650 5647 5643 5638 5635 5633 5634 5629 5626 5626 5626 5626 5628 5629 5630
5534 5535 5536 5537 5538 5540 5544 5546 5549 5553 5559 5568 5577 5586 5595 5604 5612 5618 5623 5629 5634 5638 5642 5645 5647 5648 5647 5646 5644 5640 5635 5632 5627 5624 5625 5622 5618 5616 5615 5615 5617 5618 5620
5530 5531 5532 5533 5534 5536 5538 5540 5542 5544 5550 5558 5566 5574 5584 5592 5599 5607 5614 5620 5624 5629 5633 5636 5637 5638 5639 5638 5638 5636 5633 5629 5624 5618 5618 5616 5612 5611 5606 5606 5607 5608 5610